    Orbital elements:
    2019 TA4                                                 Earth MOID = 0.0572 AU
    Epoch 2019 Apr. 27.0 TT = JDT 2458600.5                 Bell
    M 334.00917              (2000.0)            P               Q
    n   0.27054838     Peri.   78.09690     +0.24069735     +0.94406038
    a   2.3675878      Node   209.05954     -0.96766483     +0.25145678
    e   0.6858413      Incl.   27.65193     +0.07542921     +0.21335299
    P   3.64           H   20.1           G   0.15           U   8
    Residuals in seconds of arc
    191007 703  0.5-  0.1-    191007 595  0.4+  0.2+    191008 G40  0.1+  0.2-
    191007 703  0.0   0.4-    191007 C47  0.1-  0.2-    191008 Z84  0.0   0.0
    191007 703  0.2-  0.4-    191007 595  0.0   0.0     191008 Z84  0.0   0.0
    191007 703  0.0   1.3+    191007 C47  0.1+  0.0     191008 Z84  0.1+  0.2+
    191007 F51  0.0   0.1-    191007 160  0.8-  0.0     191008 Z84  0.0   0.1+
    191007 I52  0.0   0.1-    191007 160  0.7+  1.0+    191008 I52  0.1+  0.1+
    191007 I52  0.0   0.0     191007 160  0.1-  1.4+    191008 I52  0.2+  0.1-
    191007 I52  0.0   0.1-    191007 160  0.3-  0.2-    191008 I52  0.0   0.2-
    191007 I52  0.1-  0.1-    191007 160  0.5-  0.1+    191008 I52  0.0   0.1-
    191007 F51  0.1+  0.0     191007 595  0.2-  0.1-    191008 H21  0.2-  0.1+
    191007 F51  0.1+  0.0     191007 C47  0.0   0.1+    191008 H21  0.0   0.3+
    191007 T05  0.2+  0.1+    191007 C47  0.2+  0.0     191008 H21  0.0   0.1+
    191007 T05  0.1+  0.2+    191007 C47  0.2+  0.0     191008 H21  0.0   0.2+
    191007 T05  0.5-  0.5-    191007 958  0.0   0.5-    191008 H21  0.0   0.2+
    191007 T05  0.3+  0.2+    191007 K63  0.3-  0.1-    191008 H36  0.2-  0.3-
    191007 F51  0.0   0.2+    191007 K63  0.0   0.1-    191008 H36  0.0   0.4+
    191007 595  0.7+  0.1-    191007 K63  0.2-  0.4-    191008 H36  0.1-  0.5+
    191007 595  0.2-  0.3-    191007 958  0.1+  0.2+    191008 V01  0.3-  0.2+
    191007 L01  0.2-  0.1-    191007 958  0.6-  0.3-    191008 V01  0.1-  0.2-
    191007 L01  0.2-  0.3-    191007 104  0.1+  0.0     191008 F51  0.0   0.1-
    191007 L01  0.0   0.1-    191007 104  0.0   0.0     191008 V01  0.1-  0.2-
    191007 L01  0.0   0.1-    191007 104  0.1+  0.0     191008 F51  0.1+  0.0
    191007 L01  0.0   0.1-    191007 G40  0.4+  0.0     191008 F51  0.0   0.1-
    191007 L01  0.1+  0.1-    191007 G40  0.1+  0.5-
    
    Ephemeris:
    2019 TA4                 a,e,i = 2.37, 0.69, 28                  q = 0.7438
    Date    TT    R. A. (2000) Decl.     Delta      r    Elong.  Phase     V
    2019 09 08    09 45 57.5 +77 10 04   0.3283  0.9582    71.9    89.0    20.7
    ...
    2019 09 23    03 03 38.4 +67 10 49   0.2735  1.1076   105.3    60.9    19.7
    ...
    2019 10 01    02 08 09.2 +49 54 42   0.2744  1.1911   128.3    41.3    19.3
    ...
    2019 10 07    01 47 33.2 +36 51 02   0.2951  1.2542   145.6    26.8    19.1
    2019 10 08    01 44 58.3 +34 48 48   0.3003  1.2648   148.3    24.5    19.1
    2019 10 09    01 42 34.2 +32 49 55   0.3059  1.2753   151.0    22.3    19.1
    ...
    2019 10 15    01 31 10.8 +22 16 55   0.3492  1.3384   165.6    10.7    19.1
    ...
    2019 10 23    01 21 37.6 +11 53 50   0.4287  1.4219   173.5     4.5    19.4
    ...
    2019 11 07    01 14 19.4 +01 03 53   0.6270  1.5753   152.9    16.7    21.0
    
    A. U. Tomatic                (C) Copyright 2019 MPC           M.P.E.C. 2019-T162
    


    Read MPEC 2019-T161 Read MPEC 2019-T163


    MPEC number:

    Enter an MPEC number in one of the following forms:

    • 1997-B01 (the full form)
    • J97B01 (the packed version of the full form)
    • B01 (the abbreviated form)